Temp
65 65 68 69 69 69 68 68 68 68 70 72 75 77 77 75 75 74 73 73 74 75 75 73 71 71 73 74 73 73 72 70 70 67 66 66 66 66 68 66 67 69 69 67 64 62 60 57 58 64 66 65 65 65 66 67 68 67 66 67 68 68 66
67 68 69 69 67 68 68 68 69 71 72 75 77 76 76 77 75 75 74 74 73 74 75 74 73 74 73 71 71 71 70 70 70 69 68 67 67 65 66 66 68 67 67 67 66 65 61 58 58 60 60 65 65 66 66 68 68 68 67 68 70 69 67
67 68 69 67 67 69 69 69 70 71 73 74 75 76 76 77 76 76 75 75 73 74 73 74 73 72 72 71 71 71 70 69 69 68 68 67 67 68 68 67 65 65 64 63 64 64 63 62 59 60 62 61 60 63 66 66 68 68 69 69 70 69 68
67 67 67 67 68 69 70 71 71 72 73 73 74 75 76 77 75 75 75 75 74 73 74 72 71 72 72 71 72 72 71 69 67 67 68 68 68 68 69 67 65 65 63 60 61 63 63 60 60 61 63 65 63 61 65 69 69 70 71 70 68 67 69
68 67 67 68 68 69 70 70 71 71 72 73 73 73 74 75 74 74 74 74 74 73 73 72 71 71 71 72 71 70 70 70 69 69 68 67 68 68 67 67 66 66 65 65 64 64 64 63 63 60 62 65 66 67 69 66 71 71 71 71 70 70 70
67 67 67 68 68 69 70 70 70 70 71 71 71 72 72 74 73 73 73 72 72 73 73 74 72 71 71 71 71 71 70 69 69 69 68 68 68 65 66 67 67 67 67 67 67 65 65 66 64 62 65 67 62 65 68 68 65 70 71 71 72 72 71
67 67 67 68 68 69 71 70 71 71 71 71 72 71 73 74 74 74 74 74 74 73 74 73 73 73 72 71 72 71 71 70 70 69 68 69 68 68 67 66 67 68 67 68 67 67 66 66 63 64 63 64 65 65 69 69 69 65 65 68 74 74 72
66 66 66 67 68 69 70 72 72 72 71 72 72 73 74 74 73 74 74 73 74 73 73 73 74 73 71 72 71 70 71 71 70 69 69 69 69 69 69 68 67 68 68 67 65 66 67 66 65 64 65 61 61 62 62 68 67 66 65 70 74 71 70
67 67 66 67 68 69 71 72 72 72 72 72 73 73 73 73 73 73 73 73 73 73 73 73 73 72 72 71 70 69 69 73 69 70 69 69 68 68 68 69 68 67 68 67 66 66 68 66 66 66 66 64 61 59 62 62 65 66 72 70 71 72 70
67 67 66 67 68 70 72 72 72 73 73 73 73 73 73 73 72 72 72 72 73 73 72 73 73 73 72 71 71 70 70 71 69 70 68 68 68 68 67 68 68 67 67 67 68 69 69 67 68 68 69 65 65 61 58 59 62 64 70 72 67 69 71
68 69 69 69 70 71 72 72 72 72 72 74 74 74 73 72 73 74 72 71 72 72 72 73 74 73 72 71 72 71 72 71 70 69 69 70 67 68 68 69 67 67 67 68 68 69 68 68 68 69 68 68 68 63 62 59 60 65 63 69 70 67 69
70 70 71 72 72 72 72 72 72 72 73 72 72 72 72 72 72 72 71 71 72 72 73 72 72 71 72 70 71 70 71 71 70 69 69 70 69 69 68 68 67 66 66 67 68 67 67 68 68 70 69 69 68 67 65 62 58 63 66 63 67 72 69
72 72 72 72 72 72 73 73 73 72 72 73 72 73 72 72 72 71 72 71 72 72 72 72 73 72 71 71 71 71 71 71 71 70 70 71 73 70 68 68 67 66 66 67 66 67 67 68 70 69 69 69 68 67 65 64 61 61 65 65 66 70 71
71 73 73 73 72 72 72 72 72 72 72 71 72 72 72 73 73 72 73 72 72 71 71 72 72 72 71 71 71 71 72 72 72 70 70 69 73 71 70 68 68 68 68 65 65 67 69 71 70 70 70 68 67 68 66 63 61 60 63 65 65 69 71
72 73 72 72 72 72 72 72 71 72 71 72 73 74 74 73 73 73 73 73 72 72 72 72 71 71 72 70 70 73 72 73 72 70 70 70 70 72 69 68 69 68 68 68 67 72 73 72 73 72 71 70 69 68 69 67 63 60 59 65 64 69 68
72 72 71 71 72 72 71 72 73 71 71 72 73 73 73 72 73 74 74 72 72 72 72 72 71 72 70 71 71 72 71 70 69 69 70 69 72 71 69 68 68 68 70 69 69 70 71 72 74 75 71 71 69 69 71 69 65 61 61 62 63 66 65
71 71 71 71 71 71 72 71 72 72 73 72 73 74 74 74 73 73 72 73 72 72 72 72 73 73 73 73 72 71 70 70 70 70 69 70 72 71 69 68 67 69 69 67 69 69 70 70 70 72 70 69 68 69 68 67 66 63 61 62 62 68 67
70 70 70 71 71 71 71 71 71 73 72 72 73 73 73 75 74 73 72 73 73 72 73 73 72 72 72 72 73 71 71 70 70 70 70 69 71 70 67 66 66 68 69 69 67 68 69 68 74 71 70 70 69 68 68 67 67 68 64 62 63 65 66
69 70 70 70 70 70 70 70 70 71 72 72 71 73 72 74 75 74 74 74 73 74 74 72 73 72 72 72 71 72 71 70 70 71 70 70 70 70 68 67 67 70 70 68 67 69 70 71 71 70 70 71 72 70 68 66 67 66 66 64 64 63 64
66 68 69 69 70 71 70 70 71 71 72 72 72 72 73 73 73 74 74 74 73 73 73 73 72 71 73 73 72 72 71 72 71 70 70 71 71 71 71 71 69 69 69 69 69 68 68 67 68 68 68 68 70 67 66 67 68 67 67 65 64 64 63
65 66 69 70 71 71 71 71 71 72 72 71 71 73 73 73 72 74 73 73 73 72 72 72 72 72 73 72 71 71 72 71 71 72 71 71 71 70 71 71 70 70 69 67 68 67 67 66 67 67 67 68 66 66 66 66 66 65 66 65 64 63 63
64 65 67 70 70 70 71 70 71 71 71 71 72 72 73 73 73 73 74 73 73 71 62 56 53 55 65 70 71 70 72 72 70 70 71 70 71 71 70 69 67 65 64 60 56 58 58 61 67 65 65 66 66 64 65 65 66 63 63 64 61 64 62
64 64 65 66 68 69 70 70 70 70 71 71 71 72 72 73 73 73 72 72 69 63 59 53 45 42 46 60 67 72 71 69 70 70 70 68 69 71 69 66 65 63 59 58 53 49 48 51 55 61 61 63 64 64 63 63 62 63 63 61 61 61 60
65 65 65 65 67 68 69 69 69 70 70 70 70 70 70 72 71 71 72 68 63 59 53 48 41 40 41 42 60 65 68 69 70 70 69 67 68 68 69 68 65 64 64 62 54 46 47 46 44 45 46 49 55 61 62 61 61 62 63 61 61 60 60
63 63 63 64 66 67 68 68 68 68 68 68 68 69 68 68 68 68 64 63 61 57 53 43 40 41 41 40 44 60 66 67 68 68 69 69 68 69 68 67 67 68 67 66 64 61 54 48 48 45 44 45 45 44 48 59 61 60 60 60 61 60 58
59 60 61 62 63 63 65 66 67 67 66 66 67 66 66 67 66 65 63 60 58 56 52 41 40 40 41 41 40 52 67 66 66 67 69 70 70 69 69 68 68 69 72 68 69 67 65 58 45 41 45 50 51 54 50 46 49 56 58 58 59 59 61
59 59 59 60 60 61 62 62 63 63 64 64 64 64 65 65 64 61 59 58 55 52 48 42 39 40 41 40 40 46 65 65 66 68 69 68 67 64 63 61 62 61 61 63 60 57 63 65 63 63 63 63 65 57 48 50 49 42 47 57 59 60 60
58 58 58 58 59 59 59 59 60 60 60 60 60 61 62 62 61 59 57 56 53 49 45 39 39 39 40 41 40 47 62 66 66 67 68 67 64 62 62 62 62 61 61 62 52 49 53 59 62 61 60 61 62 61 60 60 60 59 59 59 59 61 61
58 58 58 58 58 58 58 58 57 57 58 58 59 59 59 60 59 58 57 56 54 51 47 39 39 39 40 39 43 61 65 66 66 67 68 65 62 61 61 60 60 60 61 58 44 41 44 52 61 62 60 59 58 59 61 58 53 51 53 55 56 55 55
58 58 59 59 58 59 59 58 58 59 58 58 57 56 55 56 59 58 56 54 52 50 48 41 38 39 39 38 48 61 64 65 66 66 62 60 61 58 57 59 61 60 58 50 40 39 40 48 60 62 61 59 57 57 58 61 55 45 42 43 43 44 44
57 56 56 56 56 56 56 56 57 58 58 57 57 56 56 56 55 55 54 53 53 50 49 43 39 40 40 39 45 59 62 64 64 63 61 59 58 54 51 51 56 57 53 47 38 39 39 50 57 59 60 59 56 56 57 60 62 58 43 42 42 41 41
56 56 56 55 55 55 55 54 55 55 56 57 57 58 57 56 55 55 54 53 52 51 49 46 41 40 41 42 48 59 61 62 62 62 61 58 57 53 50 47 45 45 47 41 37 37 38 47 55 55 56 57 57 57 55 56 57 58 58 57 56 53 50
56 56 56 57 58 56 55 55 55 56 57 57 57 57 56 55 53 52 53 53 53 52 50 48 44 41 42 43 45 58 58 58 57 59 62 62 59 56 55 53 47 39 38 38 37 37 37 39 50 52 54 56 56 54 52 53 56 58 59 58 58 57 56
58 57 56 55 56 55 55 54 56 57 56 56 56 54 54 54 53 52 51 51 50 50 50 49 45 41 43 43 44 49 55 53 54 57 60 60 60 58 57 54 51 40 39 39 38 38 38 37 39 49 52 55 51 48 44 51 55 51 57 57 57 57 58
60 60 60 60 58 57 57 58 58 58 58 57 56 55 54 53 53 52 53 52 51 51 52 50 50 43 42 42 42 44 52 51 49 56 57 58 58 57 55 53 52 43 39 40 39 39 38 39 36 44 50 40 39 39 45 50 52 55 57 57 57 56 58
59 60 59 59 59 59 60 60 60 60 59 58 57 56 56 55 54 53 53 53 53 52 52 50 47 49 42 42 41 41 41 46 44 54 55 56 55 55 54 54 52 43 39 40 40 39 40 37 39 47 39 37 39 37 40 50 54 55 56 57 57 56 54
59 59 59 59 59 59 59 60 60 60 61 60 59 58 58 58 57 56 55 54 54 54 53 52 46 45 46 41 40 38 37 39 41 46 52 56 56 54 53 52 48 39 39 40 40 39 39 39 44 43 39 38 36 38 45 50 50 54 51 51 52 53 53
MSLP
1015.95 1016.07 1016.19 1016.19 1016.19 1016.31 1016.55 1016.35 1016.31 1016.23 1015.99 1015.95 1016.03 1016.07 1016.35 1016.79 1016.95 1017.07 1017.15 1017.27 1017.39 1017.43 1017.55 1017.83 1018.15 1018.19 1018.23 1018.27 1018.27 1018.43 1018.71 1018.99 1019.19 1019.55 1019.99 1020.03 1020.19 1020.39 1020.19 1020.43 1020.51 1020.47 1020.55 1020.79 1021.11 1021.71 1022.47 1023.59 1023.79 1023.07 1022.99 1023.27 1023.15 1023.19 1023.07 1022.95 1022.95 1023.03 1023.07 1022.99 1023.07 1023.27 1023.39
1015.43 1015.75 1015.79 1015.91 1016.19 1016.23 1016.35 1016.19 1016.15 1015.91 1015.79 1015.83 1015.87 1016.15 1016.31 1016.51 1016.87 1016.99 1017.07 1017.23 1017.35 1017.43 1017.47 1017.71 1017.87 1017.91 1018.15 1018.35 1018.43 1018.59 1018.87 1018.95 1019.07 1019.31 1019.59 1020.03 1019.95 1020.35 1020.31 1020.47 1020.43 1020.71 1020.83 1020.99 1021.15 1021.47 1022.11 1022.99 1023.59 1023.55 1023.63 1023.23 1023.27 1023.11 1022.91 1022.79 1022.87 1022.91 1022.91 1022.91 1023.07 1023.39 1023.51
1015.27 1015.47 1015.67 1016.07 1016.11 1016.03 1016.19 1016.07 1015.95 1015.83 1015.75 1015.91 1016.07 1016.19 1016.35 1016.39 1016.63 1016.71 1016.91 1017.15 1017.35 1017.43 1017.51 1017.71 1017.75 1017.91 1018.11 1018.27 1018.31 1018.51 1018.67 1019.07 1019.15 1019.27 1019.55 1019.75 1019.83 1019.91 1019.95 1020.19 1020.63 1020.87 1021.19 1021.43 1021.55 1021.55 1021.87 1022.11 1023.03 1023.31 1023.35 1023.55 1023.87 1023.47 1022.95 1022.99 1022.95 1022.87 1022.79 1022.83 1023.23 1023.47 1023.51
1014.67 1015.07 1015.63 1015.99 1016.03 1016.03 1016.07 1015.95 1015.79 1015.79 1015.79 1016.03 1016.15 1016.27 1016.27 1016.31 1016.55 1016.63 1016.75 1016.95 1017.11 1017.31 1017.47 1017.75 1017.91 1017.99 1018.07 1018.11 1018.19 1018.39 1018.67 1019.03 1019.27 1019.39 1019.47 1019.55 1019.67 1019.83 1019.87 1020.11 1020.63 1020.87 1021.19 1021.67 1021.79 1021.67 1021.71 1022.23 1022.59 1022.71 1022.75 1022.83 1023.35 1023.71 1023.23 1022.79 1022.79 1022.79 1022.75 1022.95 1023.43 1023.55 1023.51
1014.03 1014.59 1015.19 1015.63 1015.83 1015.95 1015.87 1015.87 1015.75 1015.83 1016.07 1016.15 1016.23 1016.39 1016.43 1016.43 1016.55 1016.67 1016.71 1016.87 1017.11 1017.23 1017.51 1017.71 1017.87 1017.99 1018.07 1018.11 1018.19 1018.43 1018.71 1018.87 1019.07 1019.31 1019.47 1019.71 1019.67 1019.79 1019.99 1020.15 1020.51 1020.71 1020.75 1021.07 1021.27 1021.35 1021.51 1021.71 1021.99 1022.59 1022.67 1022.59 1022.87 1022.91 1022.75 1022.75 1022.63 1022.75 1022.87 1023.03 1023.19 1023.27 1023.39
1014.19 1014.27 1014.67 1015.19 1015.43 1015.63 1015.71 1015.87 1015.99 1016.11 1016.15 1016.39 1016.51 1016.63 1016.67 1016.63 1016.71 1016.87 1016.95 1017.07 1017.23 1017.27 1017.31 1017.51 1017.75 1017.91 1018.03 1018.19 1018.19 1018.43 1018.67 1018.95 1019.15 1019.31 1019.51 1019.59 1019.59 1019.99 1020.15 1020.15 1020.43 1020.75 1020.63 1020.55 1020.79 1021.15 1021.11 1021.15 1021.67 1022.43 1022.39 1022.19 1022.87 1022.91 1022.83 1022.79 1023.19 1022.91 1022.79 1022.95 1022.91 1022.95 1023.35
1014.31 1014.31 1014.47 1014.83 1015.11 1015.31 1015.47 1015.75 1015.79 1015.83 1016.03 1016.23 1016.39 1016.63 1016.59 1016.59 1016.71 1016.79 1016.83 1016.95 1017.03 1017.11 1017.23 1017.31 1017.51 1017.79 1017.95 1018.15 1018.19 1018.43 1018.63 1018.79 1018.99 1019.23 1019.39 1019.51 1019.67 1019.83 1019.87 1020.23 1020.23 1020.23 1020.31 1020.35 1020.59 1020.83 1021.07 1021.27 1021.63 1021.83 1022.23 1022.35 1022.31 1022.63 1022.43 1022.75 1022.91 1023.35 1023.27 1022.95 1022.51 1022.75 1023.19
1014.19 1014.23 1014.43 1014.51 1014.83 1015.07 1015.23 1015.39 1015.39 1015.43 1015.75 1015.95 1016.11 1016.27 1016.35 1016.47 1016.63 1016.71 1016.79 1016.95 1017.03 1017.11 1017.23 1017.39 1017.43 1017.55 1017.83 1017.99 1018.27 1018.47 1018.63 1018.75 1018.95 1019.11 1019.35 1019.51 1019.71 1019.83 1019.87 1020.03 1020.23 1020.19 1020.23 1020.43 1020.67 1020.71 1020.67 1020.99 1021.31 1021.63 1021.83 1022.63 1022.71 1022.51 1022.67 1022.71 1022.99 1023.07 1023.27 1022.91 1022.75 1023.07 1023.35
1014.15 1014.11 1014.35 1014.47 1014.63 1014.71 1014.99 1014.99 1015.15 1015.27 1015.51 1015.71 1015.87 1016.03 1016.19 1016.35 1016.67 1016.83 1016.87 1017.03 1017.07 1017.19 1017.27 1017.31 1017.43 1017.55 1017.71 1017.95 1018.27 1018.63 1018.75 1018.83 1019.03 1019.23 1019.35 1019.47 1019.67 1019.75 1019.83 1019.79 1019.95 1020.23 1020.27 1020.39 1020.51 1020.59 1020.51 1020.71 1020.95 1021.11 1021.27 1021.75 1022.51 1023.23 1022.75 1022.87 1022.79 1023.07 1022.47 1022.95 1022.99 1022.99 1023.35
1014.03 1014.11 1014.19 1014.43 1014.63 1014.71 1014.71 1014.67 1014.91 1015.11 1015.27 1015.51 1015.79 1015.91 1016.15 1016.35 1016.59 1016.75 1016.91 1017.07 1017.11 1017.15 1017.19 1017.27 1017.31 1017.51 1017.67 1017.83 1018.19 1018.51 1018.71 1018.79 1019.07 1019.15 1019.27 1019.51 1019.59 1019.75 1019.79 1019.83 1019.99 1020.15 1020.27 1020.27 1020.35 1020.35 1020.35 1020.51 1020.71 1020.79 1020.91 1021.35 1021.59 1022.35 1022.83 1023.03 1022.87 1022.87 1022.63 1022.47 1023.31 1023.35 1023.27
1013.63 1013.79 1013.95 1014.27 1014.39 1014.47 1014.39 1014.59 1014.79 1015.11 1015.31 1015.43 1015.67 1015.95 1016.15 1016.47 1016.55 1016.67 1016.95 1017.15 1017.15 1017.19 1017.31 1017.31 1017.31 1017.51 1017.67 1017.83 1018.07 1018.31 1018.43 1018.55 1018.87 1019.11 1019.27 1019.47 1019.67 1019.67 1019.71 1019.79 1019.99 1020.19 1020.19 1020.19 1020.19 1020.15 1020.27 1020.43 1020.55 1020.59 1020.75 1020.79 1021.03 1021.83 1022.19 1022.79 1022.91 1022.19 1022.35 1022.15 1022.47 1023.27 1023.35
1013.19 1013.35 1013.67 1013.83 1013.95 1014.07 1014.39 1014.67 1014.87 1015.07 1015.23 1015.47 1015.79 1016.11 1016.39 1016.59 1016.67 1016.83 1016.99 1017.19 1017.15 1017.19 1017.19 1017.27 1017.43 1017.59 1017.67 1017.99 1018.15 1018.35 1018.43 1018.59 1018.91 1019.19 1019.35 1019.43 1019.51 1019.59 1019.75 1019.87 1019.99 1020.15 1020.15 1020.15 1020.15 1020.19 1020.19 1020.31 1020.35 1020.43 1020.51 1020.55 1020.75 1021.07 1021.63 1022.19 1022.99 1022.35 1021.83 1022.59 1022.51 1022.59 1023.15
1013.07 1013.15 1013.31 1013.55 1013.79 1014.11 1014.43 1014.67 1014.91 1015.19 1015.43 1015.63 1015.99 1016.23 1016.47 1016.67 1016.75 1016.91 1017.07 1017.15 1017.19 1017.19 1017.31 1017.39 1017.43 1017.67 1017.83 1018.07 1018.23 1018.43 1018.51 1018.59 1018.87 1019.11 1019.15 1019.15 1019.27 1019.51 1019.71 1019.95 1020.07 1020.15 1020.15 1020.27 1020.31 1020.23 1020.23 1020.15 1020.15 1020.23 1020.23 1020.43 1020.75 1020.91 1021.23 1021.87 1022.51 1022.83 1021.99 1022.27 1022.47 1022.63 1022.83
1013.19 1013.15 1013.27 1013.47 1013.79 1014.15 1014.43 1014.71 1015.03 1015.27 1015.51 1015.95 1016.11 1016.43 1016.51 1016.59 1016.71 1016.79 1016.99 1017.15 1017.23 1017.31 1017.39 1017.47 1017.59 1017.75 1017.91 1018.07 1018.19 1018.35 1018.51 1018.55 1018.79 1019.03 1019.07 1019.23 1019.11 1019.43 1019.67 1019.87 1020.03 1020.11 1020.11 1020.31 1020.31 1020.27 1020.27 1020.19 1020.07 1020.11 1020.23 1020.47 1020.95 1021.03 1021.27 1021.79 1022.39 1022.67 1022.35 1021.99 1022.27 1022.55 1022.63
1013.23 1013.35 1013.51 1013.67 1013.99 1014.27 1014.59 1014.95 1015.19 1015.47 1015.91 1016.11 1016.23 1016.39 1016.39 1016.47 1016.59 1016.71 1016.95 1017.11 1017.19 1017.31 1017.39 1017.51 1017.67 1017.75 1017.95 1018.15 1018.35 1018.35 1018.51 1018.59 1018.75 1018.99 1019.11 1019.31 1019.27 1019.35 1019.63 1019.91 1020.03 1020.15 1020.19 1020.35 1020.39 1020.31 1020.15 1019.95 1020.03 1020.23 1020.39 1020.55 1021.07 1021.19 1021.11 1021.63 1022.11 1022.59 1022.91 1022.35 1022.39 1022.31 1022.59
1013.43 1013.63 1013.83 1013.99 1014.23 1014.51 1014.79 1015.11 1015.39 1015.79 1016.07 1016.23 1016.23 1016.19 1016.27 1016.43 1016.55 1016.63 1016.87 1017.07 1017.23 1017.39 1017.43 1017.55 1017.59 1017.75 1017.99 1018.23 1018.35 1018.39 1018.51 1018.71 1018.95 1019.19 1019.27 1019.31 1019.31 1019.43 1019.75 1019.91 1020.11 1020.23 1020.23 1020.39 1020.27 1020.07 1019.95 1019.99 1019.91 1020.15 1020.35 1020.39 1020.75 1021.03 1021.07 1021.31 1021.87 1022.59 1022.79 1022.75 1022.35 1022.63 1022.71
1013.67 1013.83 1014.03 1014.15 1014.39 1014.67 1014.95 1015.27 1015.51 1015.87 1016.07 1016.19 1016.27 1016.15 1016.19 1016.43 1016.55 1016.71 1016.95 1017.11 1017.27 1017.43 1017.51 1017.63 1017.67 1017.79 1018.07 1018.15 1018.27 1018.47 1018.67 1018.83 1018.95 1019.11 1019.31 1019.31 1019.35 1019.51 1019.79 1020.07 1020.27 1020.27 1020.15 1020.23 1020.27 1020.15 1020.07 1019.99 1020.11 1020.07 1020.39 1020.51 1020.67 1021.03 1021.19 1021.39 1021.55 1022.07 1022.47 1022.87 1022.55 1022.51 1022.59
1013.95 1014.03 1014.15 1014.27 1014.51 1014.79 1015.07 1015.35 1015.59 1015.87 1016.07 1016.23 1016.27 1016.27 1016.39 1016.39 1016.67 1016.79 1017.07 1017.19 1017.35 1017.47 1017.55 1017.71 1017.83 1017.95 1018.03 1018.11 1018.23 1018.43 1018.59 1018.75 1018.95 1019.07 1019.35 1019.43 1019.39 1019.63 1019.95 1020.31 1020.67 1020.51 1020.15 1020.31 1020.31 1020.31 1020.27 1020.27 1020.11 1020.23 1020.59 1020.75 1020.87 1021.11 1021.23 1021.27 1021.51 1021.59 1022.11 1022.59 1022.55 1022.23 1022.31
1014.19 1014.23 1014.31 1014.47 1014.67 1014.91 1015.19 1015.43 1015.67 1015.83 1015.99 1016.23 1016.39 1016.39 1016.55 1016.55 1016.71 1016.95 1017.07 1017.15 1017.31 1017.39 1017.55 1017.75 1017.83 1017.95 1018.11 1018.23 1018.31 1018.43 1018.47 1018.63 1018.83 1019.07 1019.27 1019.43 1019.71 1019.79 1019.99 1020.43 1020.75 1020.27 1020.27 1020.39 1020.51 1020.47 1020.35 1020.43 1020.39 1020.51 1020.75 1020.87 1020.91 1021.11 1021.31 1021.31 1021.35 1021.67 1021.91 1022.23 1022.27 1022.47 1022.39
1014.51 1014.51 1014.59 1014.75 1014.87 1015.07 1015.35 1015.55 1015.79 1016.03 1016.11 1016.19 1016.43 1016.59 1016.59 1016.67 1016.75 1016.95 1017.03 1017.11 1017.39 1017.51 1017.63 1017.75 1017.87 1018.03 1018.15 1018.27 1018.43 1018.55 1018.67 1018.75 1018.87 1019.07 1019.19 1019.31 1019.43 1019.55 1019.79 1020.03 1020.19 1020.23 1020.35 1020.43 1020.59 1020.67 1020.63 1020.67 1020.75 1020.91 1020.87 1021.07 1021.07 1021.31 1021.51 1021.51 1021.47 1021.59 1021.79 1022.07 1022.15 1022.11 1022.35
1014.71 1014.71 1014.83 1014.95 1015.07 1015.27 1015.55 1015.79 1015.91 1016.03 1016.15 1016.39 1016.55 1016.63 1016.67 1016.79 1016.87 1016.91 1017.03 1017.19 1017.39 1017.51 1017.71 1017.99 1018.23 1018.23 1018.23 1018.39 1018.59 1018.71 1018.87 1018.95 1019.03 1019.07 1019.19 1019.31 1019.43 1019.55 1019.71 1019.87 1019.99 1020.19 1020.43 1020.59 1020.67 1020.83 1020.87 1021.03 1020.99 1021.19 1021.07 1021.07 1021.23 1021.47 1021.67 1021.67 1021.67 1021.75 1021.83 1021.95 1022.19 1022.43 1022.19
1014.83 1014.99 1014.99 1015.11 1015.27 1015.43 1015.67 1015.79 1015.87 1016.03 1016.19 1016.43 1016.51 1016.59 1016.67 1016.83 1016.99 1017.07 1017.15 1017.35 1017.55 1018.15 1018.95 1019.59 1019.99 1019.47 1018.87 1018.67 1018.71 1018.95 1019.03 1019.11 1019.23 1019.35 1019.39 1019.47 1019.51 1019.67 1019.83 1020.15 1020.39 1020.55 1020.67 1020.87 1020.95 1021.11 1021.27 1021.15 1021.27 1021.55 1021.47 1021.27 1021.31 1021.47 1021.63 1021.75 1021.75 1021.91 1022.11 1022.27 1022.63 1022.47 1022.67
1015.07 1015.19 1015.31 1015.43 1015.47 1015.55 1015.63 1015.75 1015.91 1016.15 1016.35 1016.47 1016.59 1016.67 1016.79 1016.95 1017.03 1017.23 1017.51 1017.67 1018.35 1019.03 1019.67 1020.43 1020.91 1020.31 1019.95 1019.39 1019.27 1019.07 1019.07 1019.19 1019.35 1019.47 1019.63 1019.79 1019.79 1019.79 1020.19 1020.43 1020.67 1020.75 1020.87 1020.99 1021.15 1021.31 1021.31 1021.35 1021.47 1021.51 1021.67 1021.71 1021.71 1021.75 1021.91 1021.99 1022.15 1022.23 1022.35 1022.63 1022.79 1022.83 1022.79
1015.19 1015.47 1015.47 1015.67 1015.83 1015.79 1015.83 1015.95 1016.11 1016.31 1016.51 1016.63 1016.79 1016.95 1017.07 1017.19 1017.31 1017.43 1017.71 1018.43 1019.15 1019.71 1020.55 1021.07 1020.91 1020.23 1019.95 1019.87 1019.59 1019.59 1019.51 1019.35 1019.35 1019.51 1019.71 1019.99 1020.15 1020.11 1020.19 1020.39 1020.55 1020.67 1020.79 1020.95 1021.15 1021.27 1021.39 1021.55 1021.71 1021.83 1021.91 1021.99 1022.07 1022.03 1022.11 1022.23 1022.27 1022.19 1022.35 1022.43 1022.51 1022.75 1022.91
1015.63 1015.75 1015.79 1015.99 1016.07 1016.11 1016.15 1016.27 1016.51 1016.67 1016.87 1017.07 1017.15 1017.31 1017.63 1017.83 1017.83 1018.03 1018.59 1019.03 1019.51 1020.15 1020.79 1021.19 1020.79 1020.35 1020.15 1020.19 1020.23 1019.91 1019.71 1019.83 1019.67 1019.59 1019.75 1019.95 1020.11 1020.19 1020.27 1020.51 1020.63 1020.71 1020.83 1020.95 1021.11 1021.31 1021.39 1021.55 1021.71 1021.87 1021.99 1022.07 1022.15 1022.31 1022.35 1022.35 1022.51 1022.55 1022.67 1022.83 1022.75 1022.63 1022.59
1016.35 1016.31 1016.35 1016.35 1016.47 1016.47 1016.55 1016.67 1016.87 1017.19 1017.51 1017.59 1017.67 1017.91 1018.11 1018.27 1018.63 1018.87 1019.19 1019.55 1020.03 1020.47 1020.91 1021.27 1020.99 1020.67 1020.35 1020.31 1020.39 1020.15 1019.87 1019.95 1020.11 1019.99 1019.83 1019.95 1020.07 1020.19 1020.31 1020.43 1020.75 1020.75 1020.95 1021.03 1021.23 1021.27 1021.31 1021.55 1021.83 1021.95 1021.95 1022.03 1022.07 1022.03 1022.27 1022.51 1022.71 1022.79 1022.79 1022.91 1022.95 1022.83 1022.63
1016.67 1016.95 1016.79 1016.75 1016.87 1017.03 1017.19 1017.43 1017.59 1017.79 1017.99 1018.07 1018.23 1018.39 1018.55 1018.79 1019.07 1019.51 1019.87 1020.23 1020.75 1021.15 1021.51 1021.51 1021.11 1020.83 1020.67 1020.55 1020.35 1020.19 1020.15 1020.03 1020.11 1020.19 1020.23 1020.43 1020.83 1021.31 1021.59 1021.83 1021.75 1022.03 1021.91 1021.99 1022.39 1022.39 1022.03 1021.83 1021.87 1021.99 1022.07 1022.11 1022.11 1022.31 1022.35 1022.31 1022.43 1022.63 1022.75 1022.79 1022.79 1022.79 1022.43
1016.95 1017.39 1017.55 1017.27 1017.43 1017.63 1017.83 1017.91 1018.11 1018.43 1018.63 1018.83 1018.91 1018.99 1019.11 1019.27 1019.63 1019.99 1020.39 1020.79 1021.15 1021.71 1022.11 1021.87 1021.43 1021.07 1020.83 1020.55 1020.63 1020.31 1020.23 1020.23 1020.27 1020.31 1020.31 1020.55 1021.11 1021.31 1021.55 1022.07 1022.15 1022.15 1021.99 1022.15 1022.79 1022.99 1022.67 1022.55 1022.19 1022.15 1022.31 1022.47 1022.55 1022.55 1022.47 1022.51 1022.67 1022.79 1022.75 1022.63 1022.63 1022.55 1022.31
1017.31 1017.47 1017.75 1017.75 1017.99 1018.19 1018.35 1018.39 1018.67 1018.79 1019.03 1019.23 1019.27 1019.35 1019.55 1019.75 1020.15 1020.51 1020.79 1020.99 1021.31 1021.91 1022.39 1022.31 1021.87 1021.71 1021.79 1021.83 1020.99 1020.31 1020.35 1020.47 1020.51 1020.47 1020.51 1021.11 1021.59 1021.91 1021.99 1021.95 1022.47 1022.87 1022.15 1022.43 1023.23 1023.07 1022.99 1022.79 1022.35 1022.19 1022.35 1022.59 1022.63 1022.51 1022.55 1022.47 1022.55 1022.71 1022.79 1022.83 1022.75 1022.67 1022.63
1017.63 1017.75 1017.91 1018.11 1018.47 1018.55 1018.71 1018.83 1018.99 1019.07 1019.31 1019.63 1019.87 1020.11 1020.31 1020.51 1020.51 1020.83 1021.23 1021.51 1021.87 1022.31 1022.71 1022.95 1022.51 1022.07 1021.83 1021.35 1020.71 1020.75 1020.71 1020.71 1020.67 1020.83 1021.43 1021.35 1021.55 1022.15 1022.31 1022.23 1022.51 1023.07 1022.83 1023.11 1023.35 1023.07 1022.91 1022.59 1022.47 1022.39 1022.51 1022.99 1023.43 1023.35 1022.87 1022.51 1022.35 1022.43 1022.51 1022.51 1022.59 1022.59 1022.55
1018.07 1018.31 1018.47 1018.71 1018.91 1019.07 1019.23 1019.31 1019.35 1019.31 1019.51 1019.83 1020.15 1020.47 1020.71 1021.03 1021.27 1021.51 1021.75 1022.07 1022.35 1022.71 1022.99 1023.03 1022.47 1021.87 1021.55 1021.47 1021.27 1021.07 1021.07 1021.07 1021.03 1021.15 1021.63 1021.71 1022.03 1022.87 1023.15 1022.99 1023.07 1023.23 1023.55 1023.75 1023.59 1023.27 1023.07 1022.87 1022.87 1022.87 1022.75 1022.75 1022.75 1022.79 1022.75 1022.43 1022.15 1022.15 1022.39 1022.51 1022.43 1022.31 1022.27
1018.47 1018.71 1018.95 1019.19 1019.27 1019.47 1019.63 1019.79 1019.87 1019.87 1019.95 1020.07 1020.23 1020.39 1020.71 1021.07 1021.51 1021.83 1022.11 1022.39 1022.59 1022.75 1022.91 1022.91 1022.63 1022.15 1021.79 1021.63 1021.39 1021.27 1021.31 1021.39 1021.47 1021.47 1021.51 1021.87 1022.39 1022.83 1023.15 1023.31 1023.43 1023.55 1023.51 1023.71 1023.67 1023.59 1023.51 1023.23 1023.15 1023.31 1023.35 1023.15 1022.87 1022.79 1023.23 1023.27 1022.83 1022.35 1022.19 1022.15 1022.07 1022.07 1022.03
1019.07 1019.11 1019.27 1019.31 1019.39 1019.71 1019.91 1019.95 1020.15 1020.19 1020.39 1020.47 1020.59 1020.79 1021.15 1021.51 1021.91 1022.31 1022.47 1022.51 1022.63 1022.71 1022.83 1022.99 1022.99 1022.55 1022.15 1021.95 1021.83 1021.79 1022.03 1022.07 1022.19 1021.95 1021.67 1021.71 1022.23 1022.91 1023.11 1023.47 1023.59 1023.59 1023.51 1023.51 1023.55 1023.67 1023.79 1023.71 1023.47 1023.55 1023.43 1023.19 1023.31 1023.27 1023.63 1023.59 1023.11 1022.59 1022.23 1022.07 1021.95 1021.79 1021.71
1019.23 1019.51 1019.63 1019.71 1019.75 1019.95 1020.03 1020.11 1020.19 1020.31 1020.55 1020.79 1021.03 1021.31 1021.59 1021.91 1022.27 1022.63 1022.87 1022.99 1023.03 1023.19 1023.11 1023.07 1023.23 1022.99 1022.67 1022.55 1022.43 1022.39 1022.67 1022.95 1022.91 1022.59 1022.19 1022.07 1022.23 1022.67 1023.11 1023.43 1023.79 1023.99 1023.87 1023.79 1023.75 1023.79 1023.83 1023.83 1023.79 1023.59 1023.47 1023.39 1023.67 1023.87 1024.07 1023.59 1022.95 1022.67 1022.35 1022.03 1021.91 1021.83 1021.67
1019.19 1019.27 1019.31 1019.35 1019.51 1019.87 1020.15 1020.11 1020.11 1020.31 1020.63 1020.99 1021.27 1021.67 1022.03 1022.23 1022.47 1022.71 1022.87 1023.07 1023.31 1023.39 1023.31 1023.23 1023.31 1023.27 1023.03 1022.95 1022.95 1022.91 1022.95 1023.23 1023.23 1022.87 1022.67 1022.55 1022.63 1023.03 1023.43 1023.59 1023.75 1024.03 1023.99 1023.91 1023.83 1023.75 1023.75 1023.79 1023.83 1023.67 1023.55 1023.67 1023.99 1024.07 1023.95 1023.71 1023.31 1022.71 1022.19 1021.99 1021.91 1021.79 1021.63
1019.75 1019.71 1019.71 1019.71 1019.67 1019.71 1019.83 1019.99 1020.07 1020.23 1020.59 1020.87 1021.15 1021.55 1021.71 1021.99 1022.27 1022.63 1022.95 1023.15 1023.31 1023.43 1023.51 1023.55 1023.35 1023.31 1023.31 1023.19 1023.19 1023.19 1023.27 1023.27 1023.23 1023.19 1023.19 1023.11 1023.23 1023.43 1023.55 1023.59 1023.67 1023.71 1023.71 1023.63 1023.59 1023.63 1023.71 1023.75 1023.75 1023.59 1023.59 1023.71 1023.71 1023.79 1023.63 1023.31 1022.91 1022.63 1022.27 1021.99 1021.83 1021.79 1021.75
1020.27 1020.27 1020.23 1020.23 1020.19 1020.23 1020.15 1020.07 1020.11 1020.19 1020.31 1020.43 1020.67 1020.91 1021.11 1021.27 1021.51 1021.87 1022.35 1022.87 1023.03 1023.23 1023.47 1023.59 1023.67 1023.55 1023.55 1023.55 1023.55 1023.51 1023.47 1023.51 1023.51 1023.51 1023.35 1023.15 1023.27 1023.47 1023.63 1023.79 1023.79 1023.79 1023.71 1023.59 1023.51 1023.35 1023.19 1023.27 1023.23 1023.27 1023.43 1023.47 1023.67 1023.67 1023.47 1023.07 1022.79 1022.55 1022.31 1022.23 1022.19 1022.11 1021.95
Wind_Speed
10 7 5 4 4 4 3 4 2 3 2 3 4 3 5 7 4 3 2 2 4 4 4 4 4 3 4 3 3 3 3 4 3 2 4 4 3 3 4 2 2 2 3 5 4 3 5 6 3 2 4 4 3 2 1 3 3 3 3 2 3 6 5
6 5 4 4 4 4 5 3 3 3 3 4 2 2 3 5 5 4 3 3 2 3 3 4 4 4 3 2 2 3 4 3 4 3 3 2 2 2 2 2 3 2 3 5 4 2 3 4 5 5 4 5 5 3 3 3 3 3 3 3 7 7 5
6 5 4 5 4 4 4 4 4 4 3 3 3 3 3 4 3 4 4 4 3 2 3 1 3 3 5 3 3 2 4 4 3 2 3 3 2 2 1 3 2 3 3 2 1 2 4 2 5 7 6 6 4 2 2 3 4 3 3 3 7 7 4
11 9 6 6 4 4 4 4 4 4 4 4 4 3 3 4 4 3 3 4 3 4 3 3 2 2 3 2 2 4 3 5 3 2 2 3 2 2 2 2 4 3 3 2 3 2 3 3 3 5 6 5 6 5 4 5 6 5 3 7 8 6 5
12 10 9 7 6 5 3 4 4 4 5 4 2 2 1 4 2 3 3 3 3 1 4 4 3 1 2 1 2 3 3 3 4 2 3 3 2 3 3 4 5 5 3 3 3 3 3 4 5 5 4 5 6 4 5 3 4 5 6 8 7 6 7
8 10 9 7 6 5 4 4 4 4 5 5 4 3 3 3 3 3 2 4 4 2 3 5 5 3 2 1 2 4 2 3 3 3 3 2 2 3 1 2 5 4 5 4 3 4 1 4 5 6 4 4 5 5 5 4 3 3 3 6 7 7 9
8 9 8 8 7 5 5 5 5 6 6 5 5 5 4 3 3 3 3 3 5 3 2 3 4 6 4 1 1 2 3 3 3 3 2 3 2 2 2 1 0 4 3 4 2 4 3 3 3 4 6 4 4 5 6 6 6 4 2 1 5 6 8
8 8 7 7 7 6 5 5 5 6 6 5 4 5 4 3 4 3 3 4 3 3 3 3 3 4 7 4 2 3 1 2 4 3 3 4 3 3 3 3 4 4 3 4 2 2 2 2 3 2 5 7 4 4 4 7 7 4 5 4 7 9 8
6 7 7 6 6 6 5 5 5 6 6 5 5 5 3 4 4 3 3 3 3 3 3 3 3 3 2 4 5 2 1 3 2 3 3 3 3 2 2 1 2 4 3 3 2 2 2 4 3 2 5 4 6 6 5 5 6 7 9 7 6 7 8
8 8 8 8 7 6 5 5 5 6 6 5 6 4 3 4 4 4 3 3 1 2 3 3 3 5 3 1 5 4 4 5 6 4 3 3 3 3 3 3 3 4 3 2 3 3 3 3 3 2 2 3 3 4 4 4 3 6 11 10 7 6 8
9 8 7 8 7 6 5 4 5 6 6 5 6 4 3 3 2 4 5 3 2 3 3 2 3 4 3 2 4 3 2 2 4 4 2 4 4 3 3 3 3 4 2 2 2 3 3 4 4 4 4 4 5 4 3 4 4 1 3 6 8 7 8
9 8 7 7 6 6 6 5 5 5 6 5 5 4 3 3 2 4 5 3 3 2 1 3 4 3 3 4 3 3 2 2 4 4 5 5 5 5 4 3 3 3 2 1 1 1 2 3 3 5 5 5 4 4 4 4 4 1 3 4 6 8 8
8 8 7 7 7 7 6 5 5 5 6 5 4 4 3 3 3 4 4 3 2 3 3 2 1 4 3 3 3 3 2 3 3 3 4 3 6 5 4 4 3 3 2 1 1 1 2 3 4 3 2 3 6 4 3 4 4 4 1 5 6 8 10
8 7 7 8 7 7 6 6 5 5 6 3 4 4 4 4 5 3 4 3 3 2 3 2 4 2 3 3 3 3 3 3 3 3 2 3 4 6 4 4 4 3 2 3 2 2 3 5 4 5 3 4 5 5 4 3 4 3 3 4 6 7 8
7 6 7 7 7 5 8 6 6 5 4 5 3 4 5 3 5 3 4 3 3 3 3 4 3 3 2 4 4 2 2 1 1 4 3 3 3 4 4 4 4 3 3 4 3 5 5 3 3 4 3 3 7 6 5 4 4 4 4 1 4 5 6
7 8 8 7 6 8 8 7 6 5 4 5 3 3 5 3 4 3 3 4 3 3 3 3 3 3 4 3 3 2 4 3 3 2 2 3 4 4 3 3 4 3 4 5 5 2 2 3 4 5 5 3 4 4 4 4 4 4 5 3 2 5 4
7 8 8 6 8 7 7 7 5 5 3 3 3 1 5 3 3 3 3 3 3 3 3 3 2 4 3 1 2 5 4 3 3 2 3 2 4 5 3 3 3 1 4 4 3 3 2 3 3 4 4 5 4 6 6 4 4 4 3 4 4 4 5
7 8 6 7 9 7 7 6 6 6 4 3 3 1 3 2 4 2 3 3 3 3 4 3 3 3 2 2 1 3 4 4 4 3 4 3 3 5 4 3 6 7 3 1 3 4 3 3 1 5 5 2 3 4 2 2 3 7 6 6 5 1 6
6 7 7 8 8 8 6 5 5 4 4 5 4 2 3 2 4 4 2 3 3 2 4 3 3 3 3 2 2 0 1 3 4 4 4 5 5 4 6 5 4 2 1 2 1 0 1 1 4 2 3 2 3 3 1 1 2 2 3 5 6 3 5
1 5 6 6 7 7 6 6 4 4 3 3 4 2 3 4 2 4 3 3 3 3 3 2 3 3 3 3 2 1 3 1 3 4 3 4 3 4 6 6 4 3 2 2 1 1 1 2 3 3 1 3 3 4 1 1 2 0 0 2 4 4 3
3 5 5 5 7 6 7 6 5 5 4 5 3 2 2 3 3 2 2 4 3 3 3 4 4 2 2 3 2 2 1 0 2 1 3 4 4 3 5 4 3 3 4 4 2 4 5 3 2 1 2 2 2 4 1 2 1 2 1 2 1 2 3
5 5 4 6 6 7 7 5 6 5 6 4 2 3 3 4 3 2 4 3 5 10 10 7 6 7 6 4 3 3 1 1 2 2 2 3 3 4 4 6 7 6 7 9 11 9 6 6 4 4 4 3 1 2 0 1 1 2 3 1 4 3 2
7 7 7 4 4 5 4 5 6 6 6 3 3 3 3 3 2 5 3 6 10 8 7 6 8 11 9 6 6 1 2 3 2 2 1 3 2 2 8 6 6 10 9 9 10 10 10 11 9 6 3 5 6 4 4 4 3 2 1 2 1 1 2
7 6 7 7 3 4 6 6 6 5 4 4 5 5 3 2 4 4 5 10 9 7 6 6 10 11 12 13 8 6 4 1 2 2 3 3 1 1 5 5 4 6 7 6 7 10 11 10 10 9 9 9 6 4 4 4 4 3 1 2 3 1 1
8 9 8 7 5 6 6 5 6 7 6 6 6 7 8 9 9 10 10 9 8 6 5 10 12 12 12 11 9 5 5 6 3 1 2 2 3 1 2 4 3 3 2 2 3 4 5 8 10 9 8 6 7 7 6 3 2 3 4 5 3 1 2
11 9 9 9 8 9 9 8 8 8 6 6 8 9 9 9 9 9 9 9 8 7 5 12 12 12 12 11 10 7 5 4 6 5 0 0 1 1 1 2 2 2 3 6 3 2 3 4 5 6 5 5 2 1 2 3 2 1 2 3 3 5 4
10 8 9 10 11 10 10 10 9 8 7 8 7 8 7 8 9 9 7 7 7 6 7 11 13 13 13 12 12 8 4 4 4 5 6 7 9 13 13 10 8 7 8 9 10 9 8 4 3 2 2 0 1 3 2 2 2 4 4 1 3 4 4
10 8 7 9 10 10 9 10 10 8 8 7 7 7 6 7 8 7 7 7 8 7 6 12 12 14 15 15 14 8 4 4 3 4 5 6 8 7 9 8 7 4 3 2 7 7 6 6 2 1 2 4 6 4 4 2 1 1 1 1 3 6 3
9 9 8 9 9 8 8 9 8 8 8 7 7 8 8 8 8 7 6 7 7 7 7 12 12 12 10 9 7 3 4 4 3 2 3 11 10 9 8 7 3 6 2 6 6 9 8 5 4 2 0 3 3 7 7 6 5 4 3 2 1 1 1
8 8 8 8 7 6 6 6 7 6 8 7 8 8 8 7 7 8 8 7 7 7 7 8 8 7 8 12 10 4 5 5 4 4 10 7 8 8 6 4 2 3 6 7 9 11 11 8 4 4 1 3 3 3 6 6 7 5 6 8 8 7 5
10 9 9 9 8 8 7 7 6 4 7 7 7 7 7 8 8 8 9 9 7 5 4 7 11 11 11 11 6 4 4 4 3 4 6 5 7 8 8 13 8 5 5 4 8 11 11 8 4 5 5 3 1 3 6 6 6 4 8 6 6 6 6
9 9 9 9 8 9 8 7 6 7 7 6 7 7 7 8 8 8 8 8 9 8 6 8 14 13 13 12 8 4 6 5 6 4 3 5 7 8 7 8 9 6 5 4 7 8 9 6 3 3 4 4 4 1 3 7 7 8 5 4 4 4 4
11 10 8 7 8 8 6 7 7 7 6 6 7 7 7 8 8 7 6 7 7 7 8 6 10 14 15 16 14 8 7 6 6 6 5 2 6 6 6 5 7 9 9 8 8 7 7 6 4 1 1 1 2 2 4 4 6 7 7 5 4 2 3
9 9 8 7 7 7 6 7 7 7 7 6 7 7 8 7 7 7 6 6 7 6 6 7 8 12 14 15 14 10 7 7 5 5 4 6 5 6 5 5 4 4 6 6 6 5 5 4 3 2 1 2 1 3 4 5 6 6 5 6 6 5 5
7 6 5 4 5 6 6 5 6 7 6 6 7 7 7 7 7 6 5 6 5 4 4 6 5 9 12 13 13 12 7 5 4 4 6 5 6 7 5 3 3 2 2 3 3 5 4 2 1 2 0 3 2 2 3 5 6 6 5 5 5 6 6
9 7 7 8 7 6 4 4 5 7 6 6 7 6 6 6 7 7 6 5 4 4 4 4 7 8 9 11 11 11 9 7 9 6 4 4 4 4 3 3 2 5 7 6 5 4 1 2 4 3 3 1 1 4 5 4 4 5 5 5 4 3 4
8 7 7 7 8 7 6 5 6 3 2 5 6 6 6 6 6 7 8 6 5 5 4 4 6 9 8 10 10 9 9 9 8 6 3 3 5 5 4 3 3 6 7 7 8 8 10 6 4 6 5 4 3 4 3 4 4 5 4 5 6 5 6
Wind_Direction
169 190 175 155 137 167 173 210 197 223 216 244 234 152 134 149 180 133 153 178 156 161 161 150 151 174 191 178 173 147 92 124 144 137 134 170 182 120 125 141 140 150 127 81 121 140 128 134 130 170 137 145 74 68 120 164 124 123 133 163 123 95 90
147 161 173 130 151 188 187 190 214 222 211 213 172 160 158 156 154 171 158 153 122 153 158 141 154 178 126 120 122 115 114 96 77 70 99 140 80 112 132 139 127 118 113 120 151 170 125 132 129 155 144 133 155 150 146 122 128 134 157 158 107 108 116
148 160 168 145 181 204 189 196 197 190 154 151 141 177 184 147 161 157 160 137 142 167 103 154 156 147 132 154 154 113 108 110 91 85 94 100 99 121 157 107 98 114 79 66 88 109 87 114 153 160 151 152 138 154 172 135 137 158 169 123 100 110 129
158 155 161 152 170 191 189 183 166 151 130 137 162 165 186 136 142 149 144 132 154 156 160 121 61 88 134 131 145 128 119 114 121 102 95 112 116 123 89 71 70 82 130 142 155 181 166 145 139 147 155 150 131 145 196 164 148 159 126 103 113 134 127
159 156 163 155 163 174 180 159 148 140 136 145 130 131 141 110 103 121 131 133 112 120 103 123 128 104 106 94 111 93 113 113 121 138 138 142 156 118 103 78 104 125 152 144 162 147 167 142 144 140 142 135 143 140 138 148 131 130 138 127 133 143 117
162 154 151 151 157 161 161 158 158 164 143 149 145 125 105 118 111 101 116 119 112 155 139 142 146 137 114 151 145 126 124 135 140 156 135 126 122 97 121 130 150 185 160 148 150 156 167 119 140 149 149 166 139 138 141 151 132 125 118 144 151 135 119
162 155 155 150 150 151 163 176 178 159 142 140 147 141 137 150 137 158 159 148 152 142 130 112 126 141 104 23 110 125 146 138 142 152 148 132 140 130 130 121 26 105 121 121 137 123 152 139 142 136 137 145 151 149 151 139 123 121 348 293 162 120 114
163 160 159 152 149 162 180 186 162 129 121 128 128 121 143 146 112 114 91 78 77 116 124 135 112 117 133 153 104 105 178 150 152 127 147 153 156 166 141 148 149 144 128 108 106 119 111 99 116 173 157 146 153 155 152 144 155 155 162 180 104 98 110
162 156 149 145 155 167 190 166 143 133 133 133 125 119 142 112 121 100 109 97 96 116 139 129 134 117 114 134 130 101 82 117 133 162 129 146 136 129 132 104 106 113 114 120 136 176 166 151 157 219 139 162 148 151 172 155 156 155 165 117 109 115 116
165 165 156 160 166 186 189 144 138 132 126 128 123 126 136 121 143 158 124 99 84 79 89 104 127 111 142 139 113 139 182 144 185 144 149 134 141 150 151 164 139 110 108 146 178 182 161 137 196 179 181 169 159 146 153 136 135 149 152 136 133 126 113
167 165 161 168 176 175 142 127 121 118 122 124 127 136 130 138 165 124 107 112 114 96 109 157 138 114 136 116 114 141 138 116 110 121 149 149 151 170 148 147 115 121 136 179 195 149 138 185 191 156 201 170 177 152 150 143 146 169 123 120 131 133 133
167 157 169 170 170 136 131 121 119 116 117 109 113 122 129 142 141 102 109 135 127 122 111 75 96 144 123 90 119 119 114 129 134 152 160 170 154 155 155 141 120 118 132 204 92 83 140 194 196 182 205 178 146 140 145 128 136 223 131 135 127 137 138
164 160 167 153 136 128 130 115 117 111 106 110 128 139 151 145 150 127 118 117 123 123 113 137 116 88 93 123 137 138 154 170 149 161 137 159 145 148 149 136 130 133 178 105 99 212 233 237 217 162 121 111 129 132 127 140 134 169 179 130 137 139 149
165 164 148 135 129 130 122 114 103 104 108 113 119 169 159 162 141 149 122 141 139 134 121 105 87 113 138 159 126 111 183 178 150 127 142 158 145 151 148 140 141 150 152 123 186 230 231 228 152 137 143 123 121 136 147 130 131 128 54 126 136 148 161
150 145 136 128 133 124 118 114 109 108 119 128 160 195 149 152 134 155 133 140 137 127 137 119 130 174 141 90 110 166 151 157 98 120 142 157 132 128 131 150 154 136 158 169 215 206 217 176 139 130 146 164 141 164 180 160 141 122 128 115 136 135 145
140 140 133 135 128 113 115 114 119 122 129 143 188 203 132 146 145 146 139 135 141 141 156 128 168 130 95 146 175 105 93 75 87 128 123 132 141 128 137 139 137 147 179 202 207 191 188 225 184 154 163 168 126 151 173 116 121 123 143 185 167 144 144
134 131 138 133 122 116 120 121 127 135 142 157 165 179 112 156 143 131 130 132 134 154 143 127 137 118 142 182 107 115 115 123 124 147 130 169 143 127 139 120 70 212 188 188 209 125 232 279 308 88 76 55 66 62 88 156 158 120 139 156 242 163 151
132 134 129 124 122 123 121 126 139 147 136 146 125 126 122 179 136 138 124 146 143 173 128 149 137 124 127 80 111 115 159 146 147 122 103 72 59 107 97 73 127 237 173 182 93 143 258 298 39 79 86 82 82 85 43 1 122 159 152 169 202 206 153
137 132 129 125 121 119 115 101 108 117 128 137 136 143 157 179 145 126 169 137 153 123 116 150 150 136 120 178 111 202 74 101 111 113 123 146 128 144 139 130 203 182 108 72 66 96 300 8 58 91 123 177 135 117 154 42 5 117 148 175 167 214 147
67 113 128 124 124 128 121 119 124 120 131 112 125 126 205 117 136 133 187 127 128 147 136 136 96 92 123 111 106 57 84 89 115 134 158 120 125 130 142 146 161 121 120 95 51 4 26 33 23 26 43 70 29 85 69 130 263 209 202 154 161 189 181
158 141 128 129 131 130 127 143 149 139 131 116 142 176 140 124 104 158 129 117 116 113 85 45 43 38 143 109 82 100 89 44 102 45 115 140 147 123 103 117 108 84 63 56 49 39 34 11 40 1 354 49 89 135 169 278 294 346 145 247 166 206 228
91 82 123 139 128 128 147 151 135 128 114 127 145 118 116 115 178 132 86 87 87 60 55 45 25 9 6 51 117 121 119 115 76 88 76 65 83 118 106 73 75 88 89 86 83 87 83 71 54 31 6 355 49 65 81 351 74 352 336 47 349 8 341
100 118 105 90 110 127 128 119 115 113 118 134 121 107 105 133 117 102 115 82 67 62 51 48 22 27 19 31 17 17 148 113 122 113 101 83 30 71 102 102 103 111 110 109 110 103 84 75 72 71 60 47 20 39 38 22 51 107 285 39 7 260 249
94 106 119 122 112 86 82 95 110 117 116 107 95 93 91 56 87 116 87 73 66 61 50 24 12 32 28 21 23 18 3 76 125 112 98 121 93 14 101 110 115 108 106 96 76 89 91 88 87 77 67 68 60 54 24 22 359 356 334 157 168 96 290
80 78 71 71 74 108 119 103 87 76 73 73 63 63 60 42 35 53 67 73 66 61 59 17 16 21 29 26 21 358 35 12 359 104 84 112 140 152 110 127 121 122 133 113 106 86 92 98 98 98 93 79 75 71 95 75 11 356 14 358 342 214 179
61 60 67 66 63 54 56 66 74 76 65 58 61 61 57 53 60 61 59 65 60 46 51 13 11 18 18 16 17 17 27 16 15 343 18 73 20 48 137 93 116 110 62 111 115 132 154 117 57 59 64 52 28 309 73 117 93 51 359 343 335 328 332
88 67 71 71 63 59 65 67 65 63 63 60 62 65 65 68 70 66 62 64 64 51 38 4 11 16 14 8 2 17 13 17 3 353 34 40 39 41 38 34 32 29 12 4 19 5 4 58 87 68 34 351 332 49 354 17 88 147 165 210 283 284 288
84 76 73 74 64 62 66 66 63 59 62 62 66 66 61 69 72 77 75 70 69 50 23 5 14 16 8 360 351 357 348 0 358 355 10 58 68 64 68 49 14 24 108 92 41 11 20 351 6 70 19 30 22 350 326 316 343 13 352 253 243 256 285
89 89 73 76 83 77 61 73 75 70 71 61 57 57 52 62 75 73 69 73 79 55 24 13 16 19 2 320 312 21 0 338 332 332 15 54 49 52 49 60 49 290 341 74 34 39 37 353 329 299 44 51 337 304 304 291 250 193 246 296 314 17 348
92 92 94 88 82 81 87 85 83 89 84 76 72 65 63 48 58 70 62 55 61 61 38 6 13 22 6 3 14 14 359 337 325 34 73 77 76 68 60 52 108 289 32 30 10 27 22 15 359 351 16 147 162 257 286 302 290 218 200 202 217 216 198
78 77 76 77 76 73 68 60 61 63 95 102 94 90 83 77 66 64 64 57 47 61 40 16 20 26 22 16 358 14 356 339 2 63 89 100 97 81 61 58 48 58 62 44 19 35 21 25 8 353 346 0 42 292 277 282 288 241 211 239 255 248 229
70 76 79 77 75 74 69 71 74 72 73 81 86 85 84 82 77 71 74 76 67 58 35 16 17 22 28 24 21 9 18 25 36 41 88 93 97 93 70 56 60 59 68 70 65 53 41 32 41 15 9 342 309 294 44 341 312 302 302 286 261 238 243
68 65 66 73 81 77 79 79 71 76 70 69 77 83 85 82 78 69 60 64 61 56 52 31 21 30 37 33 28 45 41 40 21 8 17 76 114 105 101 79 44 29 33 36 43 52 57 55 63 40 336 340 12 332 324 314 298 303 301 285 296 291 263
94 100 100 96 92 102 109 105 96 83 77 70 69 67 75 80 89 89 80 75 71 54 60 61 36 40 48 47 41 46 55 42 22 3 11 30 62 91 82 67 74 27 25 18 26 39 56 59 61 29 343 7 99 290 300 290 292 291 274 281 280 282 274
54 63 68 76 102 113 108 93 97 102 102 102 101 103 106 112 102 94 90 80 85 84 62 72 74 49 56 55 55 53 58 45 6 9 16 32 44 63 64 59 56 60 56 46 13 4 353 48 59 303 22 116 187 220 272 282 278 274 264 259 269 274 274
43 43 41 36 40 48 79 128 135 129 134 141 142 145 142 138 133 126 124 115 98 93 90 73 69 67 56 59 54 52 49 44 14 33 31 45 52 77 77 57 42 10 360 344 334 319 283 242 238 208 173 171 233 283 273 267 279 293 290 287 290 282 286
47 42 39 42 39 31 28 38 41 46 121 155 160 162 162 160 153 148 145 139 142 131 123 92 58 57 52 45 41 33 24 18 31 18 347 34 39 49 38 29 356 321 321 319 318 319 313 311 265 259 269 268 305 285 269 268 264 265 286 304 306 300 295